Location: 22
(39.7117°N, 89.5929°W)
Time: 09:07:30
(UTC-05:00)

S-56A Canister/Altair - Pass Details

Date: 10 February 2023
Orbit: 638 x 2493 km, 38.9° (Epoch: 25 March)

Event Time Altitude Azimuth Distance (km) Brightness Sun altitude
Rises 07:47:38 0° 225° (SW) 3,456 10.7 8.2°
Reaches altitude 10° 07:50:39 10° 215° (SW) 2,316 9.9 8.7°
Maximum altitude 07:55:06 30° 155° (SSE) 1,214 9.5 9.5°
Drops below altitude 10° 07:59:00 10° 94° (E) 2,023 11.1 10.1°
Sets 08:01:27 0° 82° (E) 2,940 11.5 10.5°
